Location: Monte Sisiddò
(40.0833°N, 8.5000°E)
Time: 15:59:23
(UTC+00:00)

Daily predictions for brighter satellites

Satellite Brightness Start Highest point End
(mag) Time Altitude Azimuth Time Altitude Azimuth Time Altitude Azimuth
ATLAS 2AS CENTAUR R/B 3.8 17:01:08 10° NNW 17:06:45 25° NE 17:12:07 10° E
SKYMED 2 4.0 17:05:46 10° NNE 17:09:54 42° E 17:14:00 10° S
Cosmos 2360 Rocket 3.8 17:10:07 10° SE 17:13:06 15° E 17:16:05 10° ENE
Meteor PRIRODA 3.6 17:13:26 10° SSE 17:16:59 88° W 17:20:33 10° NNW
Cosmos 1607 4.2 17:10:59 10° SW 17:17:06 73° NW 17:23:16 10° NNE
DMSP B5D2-2 4.1 17:14:01 10° NNE 17:19:20 83° ESE 17:24:36 10° SSW
YAOGAN 1 3.8 17:17:43 10° ESE 17:20:49 20° ENE 17:23:56 10° NNE
Cosmos 2322 Rocket 3.1 17:18:10 10° SSE 17:22:49 27° ESE 17:27:28 10° NE
NOSS 3-4 (A) 4.4 17:16:29 10° NW 17:23:37 70° WSW 17:31:41 10° SSE
NOSS 3-4 (C) 4.4 17:16:35 10° NW 17:23:44 70° WSW 17:31:47 10° SSE
SL-4 R/B 3.7 17:22:22 10° WNW 17:24:52 18° NNW 17:27:28 10° NNE
Cosmos 1892 3.3 17:25:28 10° SSE 17:28:47 32° E 17:32:07 10° NNE
ATLAS CENTAUR R/B 2.7 17:25:24 10° SW 17:29:57 46° NW 17:34:23 10° NNE
Cosmos 1536 Rocket 3.4 17:26:23 10° S 17:30:41 77° E 17:35:00 10° N
Cosmos 407 Rocket 3.5 17:26:09 10° SSW 17:31:19 89° WNW 17:36:29 10° NNE
APEX 4.4 17:26:17 10° S 17:32:18 63° ESE 17:38:05 10° NNE
Cosmos 1340 Rocket 2.7 17:29:04 10° S 17:32:54 87° W 17:36:49 10° N
SL-16 R/B 2.4 17:29:33 10° S 17:35:01 52° ESE 17:40:32 10° NNE
NOSS 2-1 (E) 4.1 17:30:28 10° NNW 17:35:10 71° NE 17:41:49 10° SE
Gblst 52 Del rocket 4.2 17:30:45 10° SW 17:36:31 86° NW 17:41:35 12° NE
Cosmos 1461 4.2 17:33:24 10° SSE 17:36:41 23° ESE 17:38:57 15° ENE
PAYLOAD B 4.5 17:33:30 10° SE 17:38:42 44° ENE 17:43:55 10° N
SKYMED 3 4.4 17:39:16 10° NNE 17:43:23 69° ESE 17:47:29 10° S
Lacrosse 5 2.1 17:41:02 10° SSW 17:45:58 54° SE 17:49:51 16° NE
Cosmos 1606 Rocket 4.0 17:43:43 10° N 17:47:42 36° ENE 17:51:41 10° SE
Cosmos 1190 Rocket 4.0 17:42:49 10° SSW 17:48:06 80° ESE 17:53:25 10° NNE
Cosmos 1140 Rocket 4.3 17:43:28 10° SW 17:48:31 52° WNW 17:53:34 10° N
Cosmos 1825 2.7 17:46:04 10° SSE 17:49:25 34° E 17:52:39 11° NNE
BlueWalker 3 4.2 17:47:27 10° WNW 17:49:57 16° NNW 17:52:27 10° NNE
Cosmos 1408 2.6 17:46:52 10° SSW 17:50:13 72° W 17:53:38 10° N
Radarsat Rocket 4.5 17:45:26 10° S 17:51:15 66° WSW 17:57:37 10° NNW
Cosmos 1980 Rocket 4.0 17:46:27 10° WSW 17:51:21 30° WNW 17:56:19 10° N
Cosmos 1655 Rocket 4.2 17:48:00 10° N 17:54:15 75° W 18:00:26 10° S
Cosmos 1892 Rocket 4.2 17:50:21 10° SSE 17:54:16 32° E 17:58:11 10° NNE
Cosmos 2237 4.2 17:50:38 10° S 17:56:15 63° ESE 18:01:55 10° NNE
COSMO-SKYMED 1 3.3 17:53:42 10° N 17:57:56 54° WNW 18:02:10 10° SSW
Cosmos 2228 3.0 17:57:45 10° N 18:01:59 82° W 18:06:11 10° S
Cosmos 1633 2.8 18:00:40 10° SSE 18:03:47 36° E 18:04:00 36° E
MOS 1-B 4.4 17:58:44 10° SSE 18:04:22 57° ENE 18:10:02 10° N
CZ-4 R/B 1.9 18:04:39 10° SE 18:08:29 37° ENE 18:12:17 10° N
Tiangong 0.9 18:07:51 10° WSW 18:09:18 13° SW 18:10:45 10° S
Cosmos 2263 Rocket 3.3 18:05:05 10° NW 18:10:21 45° WSW 18:15:35 10° S
PSLV R/B 3.5 18:10:17 10° SSE 18:13:55 86° ENE 18:17:36 10° NNW
DMSP B5D1-3 4.4 18:09:57 10° NNE 18:15:02 66° ESE 18:20:07 10° S
Okean O Rocket 1.9 18:11:34 10° SE 18:15:41 42° ENE 18:19:51 10° N
Meteor 1-11 4.3 18:10:32 10° S 18:16:22 88° W 18:22:12 10° N
Cosmos 1726 Rocket 3.4 18:16:52 10° N 18:21:09 65° E 18:25:25 10° SSE
Delta 2 Rocket 4.0 18:19:23 10° SW 18:22:19 29° SSE 18:22:28 29° SSE
Lacrosse 5 rocket 3.6 18:21:50 10° N 18:21:53 10° N 18:21:53 10° N
ISS -3.2 18:20:48 10° NW 18:23:39 44° N 18:23:39 44° N
Cosmos 468 Rocket 3.9 18:19:33 10° N 18:24:39 56° ENE 18:27:46 23° SE
Cosmos 1954 Rocket 4.3 18:21:59 10° SSW 18:27:14 68° WNW 18:32:27 10° NNE
RESURS DK-1 4.3 18:24:46 10° N 18:25:55 16° NNE 18:25:55 16° NNE
Genesis I 4.0 18:24:31 10° S 18:27:27 37° SSE 18:27:27 37° SSE
Cosmos 1553 Rocket 3.8 18:23:23 10° S 18:29:23 72° E 18:35:30 10° NNE
CZ-4B R/B 3.1 18:29:08 10° SSE 18:34:27 86° WSW 18:39:52 10° NNW
Atlas Centaur 2 4.2 18:28:14 10° SSW 18:34:53 27° SSE 18:37:39 22° SE
Cosmos 1850 Rocket 4.2 18:31:13 10° S 18:35:52 46° ESE 18:35:52 46° ESE
IRIDIUM 104 4.2 18:32:00 10° N 18:37:14 77° E 18:42:26 10° S
SL-08 R/B 4.4 18:34:54 10° N 18:41:10 77° E 18:47:28 10° S
Cosmos 1741 Rocket 4.2 18:36:58 10° S 18:41:38 50° ESE 18:41:38 50° ESE
Cosmos 1844 Rocket 2.5 18:36:46 10° NNW 18:42:20 66° ENE 18:43:47 47° SE
Feng Yun 1-1 Rocket 4.1 18:37:37 10° SSE 18:43:13 74° ENE 18:48:43 10° N
IRIDIUM 114 4.2 18:41:07 10° N 18:46:22 87° W 18:51:34 10° S
Cosmos 1763 Rocket 3.6 18:41:52 10° NNW 18:47:01 72° WSW 18:52:05 10° S
Cosmos 1844 3.6 18:42:54 10° NNW 18:48:41 64° ENE 18:49:24 59° E
Spot 1 4.2 18:47:34 40° N 18:48:52 66° WNW 18:52:53 10° SSW
Cosmos 2058 Rocket 4.4 18:46:11 10° N 18:48:18 28° N 18:48:18 28° N
Cosmos 2333 Rocket 2.0 18:48:29 10° SSW 18:54:06 72° ESE 18:54:33 68° ENE
IRIDIUM 103 4.5 18:50:18 10° N 18:55:30 71° W 19:00:41 10° S
Cosmos 2360 Rocket 2.3 18:50:45 10° SSW 18:56:21 72° WNW 18:59:03 32° NNE
YAOGAN 1 4.1 18:52:40 10° SSW 18:56:37 35° W 19:00:36 10° NNW
Cosmos 2219 Rocket 3.0 18:53:00 10° S 18:56:22 35° SSE 18:56:22 35° SSE
ATLAS 2AS CENTAUR R/B 2.6 18:51:34 10° NW 18:58:31 82° WSW 19:01:41 34° SSE
S3M 3.9 18:56:30 10° S 19:02:51 79° E 19:09:17 10° N
Cosmos 2322 Rocket 3.3 19:01:23 10° SW 19:06:37 40° WNW 19:10:36 17° N
Cosmos 540 Rocket 3.6 19:04:51 10° NNW 19:09:59 71° WSW 19:10:11 70° SW
Cosmos 1461 4.4 19:11:24 10° WSW 19:15:09 35° NW 19:15:09 35° NW
Cosmos 2333 4.2 19:12:38 10° SSW 19:17:54 74° W 19:17:54 74° W
SL-16 R/B 4.3 19:14:57 10° WSW 19:19:26 23° NW 19:23:56 10° N
Lacrosse 5 3.4 19:24:40 10° W 19:29:05 30° NW 19:29:05 30° NW
CZ-4 R/B 4.2 19:40:49 10° SW 19:43:28 17° W 19:46:08 10° NW
BREEZE-M DEB (TANK) 4.3 19:35:52 10° WSW 19:45:22 43° NW 19:45:22 43° NW
BREEZE-M DEB (TANK) 4.4 19:17:46 10° WNW 19:46:13 70° NNE 19:47:04 68° NE
Okean O Rocket 4.3 19:49:26 10° SW 19:52:11 16° W 19:54:59 10° NW
BREEZE-M DEB (TANK) 4.3 19:54:12 10° WNW 19:57:31 55° NW 19:57:31 55° NW
Atlas Centaur 2 4.4 20:16:04 10° WSW 20:20:08 27° SW 20:20:08 27° SW
